owner,sensor,date,latitude,longitude,vertical_datum,wind_speed,wind_to_direction,wind_speed_of_gust,qcFlag 
TCOON,ioos:station:TCOON:009:1,2009-05-01T00:00:00Z,27.8398,-97.0727,0.0,8.3,126.0,10.6,'11111222,11111222,11111222' 
TCOON,ioos:station:TCOON:009:1,2009-05-01T01:00:00Z,27.8398,-97.0727,0.0,6.2,124.0,8.8,'11111222,11111222,11111222' 
TCOON,ioos:station:TCOON:009:1,2009-05-01T03:00:00Z,27.8398,-97.0727,0.0,4.7,133.0,8.2,'11111222,11111222,11111222' 
TCOON,ioos:station:TCOON:009:1,2009-05-01T04:00:00Z,27.8398,-97.0727,0.0,5.7,133.0,7.6,'11111222,11111222,11111222' 
TCOON,ioos:station:TCOON:009:1,2009-05-01T05:00:00Z,27.8398,-97.0727,0.0,6.3,134.0,8.7,'11111222,11111222,11111222' 
TCOON,ioos:station:TCOON:009:1,2009-05-01T06:00:00Z,27.8398,-97.0727,0.0,3.0,144.0,6.0,'11111222,11111222,11111222' 
TCOON,ioos:station:TCOON:009:1,2009-05-01T07:00:00Z,27.8398,-97.0727,0.0,4.3,149.0,5.9,'11111222,11111222,11111222' 
TCOON,ioos:station:TCOON:009:1,2009-05-01T08:00:00Z,27.8398,-97.0727,0.0,3.1,162.0,4.7,'11111222,11111222,11111222' 
TCOON,ioos:station:TCOON:009:1,2009-05-01T09:00:00Z,27.8398,-97.0727,0.0,4.4,148.0,6.9,'11111222,11111222,11111222' 
TCOON,ioos:station:TCOON:009:1,2009-05-01T10:00:00Z,27.8398,-97.0727,0.0,3.9,150.0,6.0,'11111222,11111222,11111222' 
TCOON,ioos:station:TCOON:009:1,2009-05-01T11:00:00Z,27.8398,-97.0727,0.0,5.0,146.0,7.1,'11111222,11111222,11111222' 
TCOON,ioos:station:TCOON:009:1,2009-05-01T12:00:00Z,27.8398,-97.0727,0.0,3.3,156.0,5.4,'11111222,11111222,11111222' 
TCOON,ioos:station:TCOON:009:1,2009-05-01T13:00:00Z,27.8398,-97.0727,0.0,4.3,149.0,7.2,'11111222,11111222,11111222' 
TCOON,ioos:station:TCOON:009:1,2009-05-01T14:00:00Z,27.8398,-97.0727,0.0,5.5,150.0,7.4,'11111222,11111222,11111222' 
TCOON,ioos:station:TCOON:009:1,2009-05-01T15:00:00Z,27.8398,-97.0727,0.0,4.9,165.0,7.4,'11111222,11111222,11111222' 
TCOON,ioos:station:TCOON:009:1,2009-05-01T16:00:00Z,27.8398,-97.0727,0.0,4.8,165.0,7.1,'11111222,11111222,11111222' 
TCOON,ioos:station:TCOON:009:1,2009-05-01T17:00:00Z,27.8398,-97.0727,0.0,5.0,174.0,7.5,'11111222,11111222,11111222' 
TCOON,ioos:station:TCOON:009:1,2009-05-01T18:00:00Z,27.8398,-97.0727,0.0,5.7,170.0,99.0,'11111222,11111222,11144222' 
TCOON,ioos:station:TCOON:009:1,2009-05-01T19:00:00Z,27.8398,-97.0727,0.0,5.1,169.0,8.0,'11111222,11111222,11111222' 
TCOON,ioos:station:TCOON:009:1,2009-05-01T20:00:00Z,27.8398,-97.0727,0.0,5.9,150.0,8.9,'11111222,11111222,11111222' 
TCOON,ioos:station:TCOON:009:1,2009-05-01T21:00:00Z,27.8398,-97.0727,0.0,6.8,152.0,9.6,'11111222,11111222,11111222' 
TCOON,ioos:station:TCOON:009:1,2009-05-01T22:00:00Z,27.8398,-97.0727,0.0,5.3,128.0,7.6,'11111222,11111222,11111222' 
TCOON,ioos:station:TCOON:009:1,2009-05-01T23:00:00Z,27.8398,-97.0727,0.0,6.3,124.0,8.3,'11111222,11111222,11111222' 
TCOON,ioos:station:TCOON:009:1,2009-05-02T00:00:00Z,27.8398,-97.0727,0.0,5.7,124.0,8.2,'11111222,11111222,11111222' 
TCOON,ioos:station:TCOON:009:1,2009-05-02T01:00:00Z,27.8398,-97.0727,0.0,7.4,130.0,10.2,'11111222,11111222,11111222' 
TCOON,ioos:station:TCOON:009:1,2009-05-02T02:00:00Z,27.8398,-97.0727,0.0,4.8,122.0,7.6,'11111222,11111222,11111222' 
TCOON,ioos:station:TCOON:009:1,2009-05-02T03:00:00Z,27.8398,-97.0727,0.0,6.2,126.0,8.5,'11111222,11111222,11111222' 
TCOON,ioos:station:TCOON:009:1,2009-05-02T04:00:00Z,27.8398,-97.0727,0.0,6.1,130.0,8.4,'11111222,11111222,11111222' 
TCOON,ioos:station:TCOON:009:1,2009-05-02T05:00:00Z,27.8398,-97.0727,0.0,6.6,135.0,8.9,'11111222,11111222,11111222' 
TCOON,ioos:station:TCOON:009:1,2009-05-02T06:00:00Z,27.8398,-97.0727,0.0,5.1,148.0,7.9,'11111222,11111222,11111222' 
TCOON,ioos:station:TCOON:009:1,2009-05-02T07:00:00Z,27.8398,-97.0727,0.0,4.1,159.0,6.6,'11111222,11111222,11111222' 
TCOON,ioos:station:TCOON:009:1,2009-05-02T08:00:00Z,27.8398,-97.0727,0.0,5.0,154.0,7.7,'11111222,11111222,11111222' 
TCOON,ioos:station:TCOON:009:1,2009-05-02T09:00:00Z,27.8398,-97.0727,0.0,5.0,176.0,7.3,'11111222,11111222,11111222' 
TCOON,ioos:station:TCOON:009:1,2009-05-02T10:00:00Z,27.8398,-97.0727,0.0,3.9,156.0,6.4,'11111222,11111222,11111222' 
TCOON,ioos:station:TCOON:009:1,2009-05-02T11:00:00Z,27.8398,-97.0727,0.0,5.5,151.0,9.3,'11111222,11111222,11111222' 
TCOON,ioos:station:TCOON:009:1,2009-05-02T12:00:00Z,27.8398,-97.0727,0.0,4.6,147.0,8.9,'11111222,11111222,11111222' 
TCOON,ioos:station:TCOON:009:1,2009-05-02T13:00:00Z,27.8398,-97.0727,0.0,4.3,152.0,6.9,'11111222,11111222,11111222' 
TCOON,ioos:station:TCOON:009:1,2009-05-02T14:00:00Z,27.8398,-97.0727,0.0,4.5,155.0,8.0,'11111222,11111222,11111222' 
TCOON,ioos:station:TCOON:009:1,2009-05-02T15:00:00Z,27.8398,-97.0727,0.0,5.0,150.0,8.8,'11111222,11111222,11111222' 
TCOON,ioos:station:TCOON:009:1,2009-05-02T16:00:00Z,27.8398,-97.0727,0.0,5.2,153.0,8.2,'11111222,11111222,11111222' 
TCOON,ioos:station:TCOON:009:1,2009-05-02T17:00:00Z,27.8398,-97.0727,0.0,4.8,152.0,9.4,'11111222,11111222,11111222' 
TCOON,ioos:station:TCOON:009:1,2009-05-02T18:00:00Z,27.8398,-97.0727,0.0,5.3,154.0,8.4,'11111222,11111222,11111222' 
TCOON,ioos:station:TCOON:009:1,2009-05-02T19:00:00Z,27.8398,-97.0727,0.0,7.8,150.0,11.4,'11111222,11111222,11111222' 
TCOON,ioos:station:TCOON:009:1,2009-05-02T20:00:00Z,27.8398,-97.0727,0.0,7.3,139.0,10.6,'11111222,11111222,11111222' 
TCOON,ioos:station:TCOON:009:1,2009-05-02T21:00:00Z,27.8398,-97.0727,0.0,5.8,140.0,8.7,'11111222,11111222,11111222' 
TCOON,ioos:station:TCOON:009:1,2009-05-02T22:00:00Z,27.8398,-97.0727,0.0,6.3,142.0,9.4,'11111222,11111222,11111222' 
TCOON,ioos:station:TCOON:009:1,2009-05-02T23:00:00Z,27.8398,-97.0727,0.0,5.9,132.0,8.2,'11111222,11111222,11111222' 
TCOON,ioos:station:TCOON:009:1,2009-05-03T00:00:00Z,27.8398,-97.0727,0.0,6.3,126.0,9.2,'11111222,11111222,11111222' 
TCOON,ioos:station:TCOON:009:1,2009-05-03T01:00:00Z,27.8398,-97.0727,0.0,6.7,130.0,8.5,'11111222,11111222,11111222' 
TCOON,ioos:station:TCOON:009:1,2009-05-03T02:00:00Z,27.8398,-97.0727,0.0,6.9,132.0,9.2,'11111222,11111222,11111222' 
TCOON,ioos:station:TCOON:009:1,2009-05-03T03:00:00Z,27.8398,-97.0727,0.0,6.6,131.0,9.0,'11111222,11111222,11111222' 
TCOON,ioos:station:TCOON:009:1,2009-05-03T04:00:00Z,27.8398,-97.0727,0.0,6.8,151.0,10.6,'11111222,11111222,11111222' 
TCOON,ioos:station:TCOON:009:1,2009-05-03T05:00:00Z,27.8398,-97.0727,0.0,4.8,153.0,7.2,'11111222,11111222,11111222' 
TCOON,ioos:station:TCOON:009:1,2009-05-03T06:00:00Z,27.8398,-97.0727,0.0,4.2,167.0,7.3,'11111222,11111222,11111222' 
TCOON,ioos:station:TCOON:009:1,2009-05-03T07:00:00Z,27.8398,-97.0727,0.0,4.4,166.0,7.6,'11111222,11111222,11111222' 
TCOON,ioos:station:TCOON:009:1,2009-05-03T08:00:00Z,27.8398,-97.0727,0.0,4.3,172.0,7.3,'11111222,11111222,11111222' 
TCOON,ioos:station:TCOON:009:1,2009-05-03T09:00:00Z,27.8398,-97.0727,0.0,4.1,165.0,6.7,'11111222,11111222,11111222' 
TCOON,ioos:station:TCOON:009:1,2009-05-03T10:00:00Z,27.8398,-97.0727,0.0,5.3,166.0,8.4,'11111222,11111222,11111222' 
TCOON,ioos:station:TCOON:009:1,2009-05-03T11:00:00Z,27.8398,-97.0727,0.0,4.0,163.0,6.5,'11111222,11111222,11111222' 
TCOON,ioos:station:TCOON:009:1,2009-05-03T12:00:00Z,27.8398,-97.0727,0.0,4.7,171.0,8.2,'11111222,11111222,11111222' 
TCOON,ioos:station:TCOON:009:1,2009-05-03T13:00:00Z,27.8398,-97.0727,0.0,5.5,188.0,8.5,'11111222,11111222,11111222' 
TCOON,ioos:station:TCOON:009:1,2009-05-03T14:00:00Z,27.8398,-97.0727,0.0,5.2,218.0,7.8,'11111222,11111222,11111222' 
TCOON,ioos:station:TCOON:009:1,2009-05-03T15:00:00Z,27.8398,-97.0727,0.0,5.8,190.0,20.0,'11111222,11111222,11111222' 
TCOON,ioos:station:TCOON:009:1,2009-05-03T16:00:00Z,27.8398,-97.0727,0.0,5.7,183.0,7.8,'11111222,11111222,11111222' 
TCOON,ioos:station:TCOON:009:1,2009-05-03T17:00:00Z,27.8398,-97.0727,0.0,6.0,178.0,9.4,'11111222,11111222,11111222' 
TCOON,ioos:station:TCOON:009:1,2009-05-03T18:00:00Z,27.8398,-97.0727,0.0,5.3,171.0,8.6,'11111222,11111222,11111222' 
TCOON,ioos:station:TCOON:009:1,2009-05-03T19:00:00Z,27.8398,-97.0727,0.0,6.8,163.0,9.9,'11111222,11111222,11111222' 
TCOON,ioos:station:TCOON:009:1,2009-05-03T20:00:00Z,27.8398,-97.0727,0.0,6.4,154.0,9.5,'11111222,11111222,11111222' 
TCOON,ioos:station:TCOON:009:1,2009-05-03T21:00:00Z,27.8398,-97.0727,0.0,7.4,151.0,10.3,'11111222,11111222,11111222' 
TCOON,ioos:station:TCOON:009:1,2009-05-03T22:00:00Z,27.8398,-97.0727,0.0,6.1,141.0,8.3,'11111222,11111222,11111222' 
TCOON,ioos:station:TCOON:009:1,2009-05-03T23:00:00Z,27.8398,-97.0727,0.0,4.2,152.0,7.2,'11111222,11111222,11111222' 
TCOON,ioos:station:TCOON:009:1,2009-05-04T00:00:00Z,27.8398,-97.0727,0.0,4.0,114.0,5.9,'11111222,11111222,11111222' 
TCOON,ioos:station:TCOON:009:1,2009-05-04T01:00:00Z,27.8398,-97.0727,0.0,4.2,110.0,5.4,'11111222,11111222,11111222' 
TCOON,ioos:station:TCOON:009:1,2009-05-04T02:00:00Z,27.8398,-97.0727,0.0,3.5,110.0,4.9,'11111222,11111222,11111222' 
TCOON,ioos:station:TCOON:009:1,2009-05-04T03:00:00Z,27.8398,-97.0727,0.0,3.6,106.0,5.3,'11111222,11111222,11111222' 
TCOON,ioos:station:TCOON:009:1,2009-05-04T04:00:00Z,27.8398,-97.0727,0.0,3.3,100.0,4.8,'11111222,11111222,11111222' 
TCOON,ioos:station:TCOON:009:1,2009-05-04T05:00:00Z,27.8398,-97.0727,0.0,4.4,65.0,5.0,'11111222,11111222,11111222' 
TCOON,ioos:station:TCOON:009:1,2009-05-04T06:00:00Z,27.8398,-97.0727,0.0,4.5,68.0,5.7,'11111222,11111222,11111222' 
TCOON,ioos:station:TCOON:009:1,2009-05-04T07:00:00Z,27.8398,-97.0727,0.0,4.4,88.0,5.4,'11111222,11111222,11111222' 
TCOON,ioos:station:TCOON:009:1,2009-05-04T08:00:00Z,27.8398,-97.0727,0.0,4.1,95.0,5.3,'11111222,11111222,11111222' 
TCOON,ioos:station:TCOON:009:1,2009-05-04T09:00:00Z,27.8398,-97.0727,0.0,2.5,98.0,3.2,'11111222,11111222,11111222' 
TCOON,ioos:station:TCOON:009:1,2009-05-04T10:00:00Z,27.8398,-97.0727,0.0,4.1,68.0,4.4,'11111222,11111222,11111222' 
TCOON,ioos:station:TCOON:009:1,2009-05-04T11:00:00Z,27.8398,-97.0727,0.0,3.6,67.0,4.2,'11111222,11111222,11111222' 
TCOON,ioos:station:TCOON:009:1,2009-05-04T12:00:00Z,27.8398,-97.0727,0.0,8.2,44.0,9.3,'11111222,11111222,11111222' 
TCOON,ioos:station:TCOON:009:1,2009-05-04T13:00:00Z,27.8398,-97.0727,0.0,7.0,39.0,8.7,'11111222,11111222,11111222' 
TCOON,ioos:station:TCOON:009:1,2009-05-04T14:00:00Z,27.8398,-97.0727,0.0,7.3,47.0,8.5,'11111222,11111222,11111222' 
TCOON,ioos:station:TCOON:009:1,2009-05-04T15:00:00Z,27.8398,-97.0727,0.0,7.5,53.0,9.3,'11111222,11111222,11111222' 
TCOON,ioos:station:TCOON:009:1,2009-05-04T16:00:00Z,27.8398,-97.0727,0.0,6.5,58.0,8.0,'11111222,11111222,11111222' 
TCOON,ioos:station:TCOON:009:1,2009-05-04T17:00:00Z,27.8398,-97.0727,0.0,6.5,73.0,7.7,'11111222,11111222,11111222' 
TCOON,ioos:station:TCOON:009:1,2009-05-04T19:00:00Z,27.8398,-97.0727,0.0,6.5,74.0,7.9,'11111222,11111222,11111222' 
TCOON,ioos:station:TCOON:009:1,2009-05-04T20:00:00Z,27.8398,-97.0727,0.0,6.1,91.0,8.4,'11111222,11111222,11111222' 
TCOON,ioos:station:TCOON:009:1,2009-05-04T21:00:00Z,27.8398,-97.0727,0.0,7.3,81.0,9.2,'11111222,11111222,11111222' 
TCOON,ioos:station:TCOON:009:1,2009-05-04T22:00:00Z,27.8398,-97.0727,0.0,6.9,88.0,8.8,'11111222,11111222,11111222' 
TCOON,ioos:station:TCOON:009:1,2009-05-04T23:00:00Z,27.8398,-97.0727,0.0,7.0,90.0,8.6,'11111222,11111222,11111222' 
TCOON,ioos:station:TCOON:009:1,2009-05-05T00:00:00Z,27.8398,-97.0727,0.0,5.3,96.0,7.1,'11111222,11111222,11111222' 
TCOON,ioos:station:TCOON:009:1,2009-05-05T01:00:00Z,27.8398,-97.0727,0.0,5.4,104.0,7.3,'11111222,11111222,11111222' 
TCOON,ioos:station:TCOON:009:1,2009-05-05T02:00:00Z,27.8398,-97.0727,0.0,5.7,104.0,6.8,'11111222,11111222,11111222' 
TCOON,ioos:station:TCOON:009:1,2009-05-05T03:00:00Z,27.8398,-97.0727,0.0,3.9,99.0,5.5,'11111222,11111222,11111222' 
TCOON,ioos:station:TCOON:009:1,2009-05-05T04:00:00Z,27.8398,-97.0727,0.0,4.3,119.0,6.3,'11111222,11111222,11111222' 
TCOON,ioos:station:TCOON:009:1,2009-05-05T05:00:00Z,27.8398,-97.0727,0.0,3.7,126.0,5.3,'11111222,11111222,11111222' 
TCOON,ioos:station:TCOON:009:1,2009-05-05T06:00:00Z,27.8398,-97.0727,0.0,4.9,131.0,6.3,'11111222,11111222,11111222' 
TCOON,ioos:station:TCOON:009:1,2009-05-05T07:00:00Z,27.8398,-97.0727,0.0,4.8,130.0,7.6,'11111222,11111222,11111222' 
TCOON,ioos:station:TCOON:009:1,2009-05-05T08:00:00Z,27.8398,-97.0727,0.0,4.3,124.0,6.5,'11111222,11111222,11111222' 
TCOON,ioos:station:TCOON:009:1,2009-05-05T09:00:00Z,27.8398,-97.0727,0.0,4.8,128.0,6.6,'11111222,11111222,11111222' 
TCOON,ioos:station:TCOON:009:1,2009-05-05T10:00:00Z,27.8398,-97.0727,0.0,4.1,122.0,6.8,'11111222,11111222,11111222' 
TCOON,ioos:station:TCOON:009:1,2009-05-05T11:00:00Z,27.8398,-97.0727,0.0,4.1,124.0,5.1,'11111222,11111222,11111222' 
TCOON,ioos:station:TCOON:009:1,2009-05-05T12:00:00Z,27.8398,-97.0727,0.0,3.4,136.0,4.9,'11111222,11111222,11111222' 
TCOON,ioos:station:TCOON:009:1,2009-05-05T13:00:00Z,27.8398,-97.0727,0.0,3.9,146.0,6.3,'11111222,11111222,11111222' 
TCOON,ioos:station:TCOON:009:1,2009-05-05T14:00:00Z,27.8398,-97.0727,0.0,3.6,154.0,8.5,'11111222,11111222,11111222' 
TCOON,ioos:station:TCOON:009:1,2009-05-05T15:00:00Z,27.8398,-97.0727,0.0,2.8,158.0,4.8,'11111222,11111222,11111222' 
TCOON,ioos:station:TCOON:009:1,2009-05-05T16:00:00Z,27.8398,-97.0727,0.0,4.5,166.0,6.9,'11111222,11111222,11111222' 
TCOON,ioos:station:TCOON:009:1,2009-05-05T17:00:00Z,27.8398,-97.0727,0.0,5.4,145.0,8.1,'11111222,11111222,11111222' 
TCOON,ioos:station:TCOON:009:1,2009-05-05T18:00:00Z,27.8398,-97.0727,0.0,3.9,156.0,6.0,'11111222,11111222,11111222' 
TCOON,ioos:station:TCOON:009:1,2009-05-05T19:00:00Z,27.8398,-97.0727,0.0,4.2,163.0,6.8,'11111222,11111222,11111222' 
TCOON,ioos:station:TCOON:009:1,2009-05-05T20:00:00Z,27.8398,-97.0727,0.0,7.6,151.0,10.9,'11111222,11111222,11111222' 
TCOON,ioos:station:TCOON:009:1,2009-05-05T21:00:00Z,27.8398,-97.0727,0.0,5.8,144.0,8.3,'11111222,11111222,11111222' 
TCOON,ioos:station:TCOON:009:1,2009-05-05T22:00:00Z,27.8398,-97.0727,0.0,6.6,148.0,9.8,'11111222,11111222,11111222' 
TCOON,ioos:station:TCOON:009:1,2009-05-05T23:00:00Z,27.8398,-97.0727,0.0,5.8,147.0,8.7,'11111222,11111222,11111222' 
TCOON,ioos:station:TCOON:009:1,2009-05-06T00:00:00Z,27.8398,-97.0727,0.0,5.7,140.0,8.2,'11111222,11111222,11111222' 
TCOON,ioos:station:TCOON:009:1,2009-05-06T01:00:00Z,27.8398,-97.0727,0.0,4.3,151.0,7.4,'11111222,11111222,11111222' 
TCOON,ioos:station:TCOON:009:1,2009-05-06T02:00:00Z,27.8398,-97.0727,0.0,4.9,150.0,9.5,'11111222,11111222,11111222' 
TCOON,ioos:station:TCOON:009:1,2009-05-06T03:00:00Z,27.8398,-97.0727,0.0,4.4,153.0,6.9,'11111222,11111222,11111222' 
TCOON,ioos:station:TCOON:009:1,2009-05-06T04:00:00Z,27.8398,-97.0727,0.0,4.1,153.0,5.9,'11111222,11111222,11111222' 
TCOON,ioos:station:TCOON:009:1,2009-05-06T05:00:00Z,27.8398,-97.0727,0.0,4.4,149.0,7.2,'11111222,11111222,11111222' 
TCOON,ioos:station:TCOON:009:1,2009-05-06T06:00:00Z,27.8398,-97.0727,0.0,5.3,160.0,7.9,'11111222,11111222,11111222' 
TCOON,ioos:station:TCOON:009:1,2009-05-06T07:00:00Z,27.8398,-97.0727,0.0,3.4,172.0,5.5,'11111222,11111222,11111222' 
TCOON,ioos:station:TCOON:009:1,2009-05-06T08:00:00Z,27.8398,-97.0727,0.0,5.5,164.0,28.6,'11111222,11111222,11111222' 
TCOON,ioos:station:TCOON:009:1,2009-05-06T09:00:00Z,27.8398,-97.0727,0.0,5.1,177.0,8.0,'11111222,11111222,11111222' 
TCOON,ioos:station:TCOON:009:1,2009-05-06T10:00:00Z,27.8398,-97.0727,0.0,4.8,176.0,6.7,'11111222,11111222,11111222' 
TCOON,ioos:station:TCOON:009:1,2009-05-06T11:00:00Z,27.8398,-97.0727,0.0,3.7,167.0,7.0,'11111222,11111222,11111222' 
TCOON,ioos:station:TCOON:009:1,2009-05-06T12:00:00Z,27.8398,-97.0727,0.0,4.7,165.0,8.1,'11111222,11111222,11111222' 
TCOON,ioos:station:TCOON:009:1,2009-05-06T13:00:00Z,27.8398,-97.0727,0.0,5.3,175.0,7.8,'11111222,11111222,11111222' 
TCOON,ioos:station:TCOON:009:1,2009-05-06T14:00:00Z,27.8398,-97.0727,0.0,5.4,176.0,7.7,'11111222,11111222,11111222' 
TCOON,ioos:station:TCOON:009:1,2009-05-06T15:00:00Z,27.8398,-97.0727,0.0,4.1,170.0,7.0,'11111222,11111222,11111222' 
TCOON,ioos:station:TCOON:009:1,2009-05-06T16:00:00Z,27.8398,-97.0727,0.0,4.4,159.0,6.8,'11111222,11111222,11111222' 
TCOON,ioos:station:TCOON:009:1,2009-05-06T17:00:00Z,27.8398,-97.0727,0.0,4.8,147.0,8.1,'11111222,11111222,11111222' 
TCOON,ioos:station:TCOON:009:1,2009-05-06T18:00:00Z,27.8398,-97.0727,0.0,5.8,144.0,9.3,'11111222,11111222,11111222' 
TCOON,ioos:station:TCOON:009:1,2009-05-06T19:00:00Z,27.8398,-97.0727,0.0,5.2,155.0,7.6,'11111222,11111222,11111222' 
TCOON,ioos:station:TCOON:009:1,2009-05-06T20:00:00Z,27.8398,-97.0727,0.0,4.5,151.0,8.7,'11111222,11111222,11111222' 
TCOON,ioos:station:TCOON:009:1,2009-05-06T21:00:00Z,27.8398,-97.0727,0.0,6.5,146.0,8.9,'11111222,11111222,11111222' 
TCOON,ioos:station:TCOON:009:1,2009-05-06T22:00:00Z,27.8398,-97.0727,0.0,7.2,147.0,10.6,'11111222,11111222,11111222' 
TCOON,ioos:station:TCOON:009:1,2009-05-06T23:00:00Z,27.8398,-97.0727,0.0,6.8,149.0,25.0,'11111222,11111222,11111222' 
TCOON,ioos:station:TCOON:009:1,2009-05-07T00:00:00Z,27.8398,-97.0727,0.0,6.2,145.0,9.2,'11111222,11111222,11111222' 
TCOON,ioos:station:TCOON:009:1,2009-05-07T01:00:00Z,27.8398,-97.0727,0.0,5.7,142.0,9.5,'11111222,11111222,11111222' 
TCOON,ioos:station:TCOON:009:1,2009-05-07T02:00:00Z,27.8398,-97.0727,0.0,5.8,140.0,8.0,'11111222,11111222,11111222' 
TCOON,ioos:station:TCOON:009:1,2009-05-07T03:00:00Z,27.8398,-97.0727,0.0,4.8,130.0,6.4,'11111222,11111222,11111222' 
TCOON,ioos:station:TCOON:009:1,2009-05-07T04:00:00Z,27.8398,-97.0727,0.0,3.9,126.0,5.0,'11111222,11111222,11111222' 
TCOON,ioos:station:TCOON:009:1,2009-05-07T05:00:00Z,27.8398,-97.0727,0.0,3.9,141.0,6.1,'11111222,11111222,11111222' 
TCOON,ioos:station:TCOON:009:1,2009-05-07T06:00:00Z,27.8398,-97.0727,0.0,3.4,150.0,5.6,'11111222,11111222,11111222' 
TCOON,ioos:station:TCOON:009:1,2009-05-07T07:00:00Z,27.8398,-97.0727,0.0,3.4,150.0,5.9,'11111222,11111222,11111222' 
TCOON,ioos:station:TCOON:009:1,2009-05-07T08:00:00Z,27.8398,-97.0727,0.0,4.0,141.0,6.0,'11111222,11111222,11111222' 
TCOON,ioos:station:TCOON:009:1,2009-05-07T09:00:00Z,27.8398,-97.0727,0.0,4.3,141.0,5.9,'11111222,11111222,11111222' 
TCOON,ioos:station:TCOON:009:1,2009-05-07T10:00:00Z,27.8398,-97.0727,0.0,3.9,139.0,5.9,'11111222,11111222,11111222' 
TCOON,ioos:station:TCOON:009:1,2009-05-07T11:00:00Z,27.8398,-97.0727,0.0,3.2,141.0,5.4,'11111222,11111222,11111222' 
TCOON,ioos:station:TCOON:009:1,2009-05-07T12:00:00Z,27.8398,-97.0727,0.0,3.9,144.0,6.8,'11111222,11111222,11111222' 
TCOON,ioos:station:TCOON:009:1,2009-05-07T13:00:00Z,27.8398,-97.0727,0.0,3.8,144.0,4.9,'11111222,11111222,11111222' 
TCOON,ioos:station:TCOON:009:1,2009-05-07T14:00:00Z,27.8398,-97.0727,0.0,4.4,153.0,6.5,'11111222,11111222,11111222' 
TCOON,ioos:station:TCOON:009:1,2009-05-07T15:00:00Z,27.8398,-97.0727,0.0,3.7,139.0,5.6,'11111222,11111222,11111222' 
TCOON,ioos:station:TCOON:009:1,2009-05-07T16:00:00Z,27.8398,-97.0727,0.0,4.1,140.0,7.0,'11111222,11111222,11111222' 
TCOON,ioos:station:TCOON:009:1,2009-05-07T17:00:00Z,27.8398,-97.0727,0.0,4.5,151.0,8.0,'11111222,11111222,11111222' 
TCOON,ioos:station:TCOON:009:1,2009-05-07T18:00:00Z,27.8398,-97.0727,0.0,6.3,159.0,8.6,'11111222,11111222,11111222' 
TCOON,ioos:station:TCOON:009:1,2009-05-07T19:00:00Z,27.8398,-97.0727,0.0,6.5,148.0,99.0,'11111222,11111222,11144222' 
TCOON,ioos:station:TCOON:009:1,2009-05-07T20:00:00Z,27.8398,-97.0727,0.0,6.1,155.0,9.4,'11111222,11111222,11111222' 
TCOON,ioos:station:TCOON:009:1,2009-05-07T21:00:00Z,27.8398,-97.0727,0.0,6.9,133.0,9.2,'11111222,11111222,11111222' 
TCOON,ioos:station:TCOON:009:1,2009-05-07T22:00:00Z,27.8398,-97.0727,0.0,7.4,134.0,25.0,'11111222,11111222,11111222' 
TCOON,ioos:station:TCOON:009:1,2009-05-07T23:00:00Z,27.8398,-97.0727,0.0,7.9,135.0,9.9,'11111222,11111222,11111222' 
TCOON,ioos:station:TCOON:009:1,2009-05-08T00:00:00Z,27.8398,-97.0727,0.0,8.0,133.0,10.1,'11111222,11111222,11111222' 
TCOON,ioos:station:TCOON:009:1,2009-05-08T01:00:00Z,27.8398,-97.0727,0.0,7.0,130.0,9.8,'11111222,11111222,11111222' 
TCOON,ioos:station:TCOON:009:1,2009-05-08T02:00:00Z,27.8398,-97.0727,0.0,4.5,138.0,7.1,'11111222,11111222,11111222' 
TCOON,ioos:station:TCOON:009:1,2009-05-08T03:00:00Z,27.8398,-97.0727,0.0,6.5,133.0,8.9,'11111222,11111222,11111222' 
TCOON,ioos:station:TCOON:009:1,2009-05-08T04:00:00Z,27.8398,-97.0727,0.0,5.1,145.0,7.9,'11111222,11111222,11111222' 
TCOON,ioos:station:TCOON:009:1,2009-05-08T05:00:00Z,27.8398,-97.0727,0.0,6.0,149.0,8.8,'11111222,11111222,11111222' 
TCOON,ioos:station:TCOON:009:1,2009-05-08T06:00:00Z,27.8398,-97.0727,0.0,4.6,153.0,7.0,'11111222,11111222,11111222' 
TCOON,ioos:station:TCOON:009:1,2009-05-08T07:00:00Z,27.8398,-97.0727,0.0,5.6,157.0,9.0,'11111222,11111222,11111222' 
TCOON,ioos:station:TCOON:009:1,2009-05-08T08:00:00Z,27.8398,-97.0727,0.0,4.9,166.0,8.2,'11111222,11111222,11111222' 
TCOON,ioos:station:TCOON:009:1,2009-05-08T09:00:00Z,27.8398,-97.0727,0.0,5.2,176.0,7.6,'11111222,11111222,11111222' 
TCOON,ioos:station:TCOON:009:1,2009-05-08T10:00:00Z,27.8398,-97.0727,0.0,4.7,173.0,8.7,'11111222,11111222,11111222' 
TCOON,ioos:station:TCOON:009:1,2009-05-08T11:00:00Z,27.8398,-97.0727,0.0,3.8,172.0,6.2,'11111222,11111222,11111222' 
TCOON,ioos:station:TCOON:009:1,2009-05-08T12:00:00Z,27.8398,-97.0727,0.0,5.3,165.0,8.4,'11111222,11111222,11111222' 
TCOON,ioos:station:TCOON:009:1,2009-05-08T13:00:00Z,27.8398,-97.0727,0.0,5.4,176.0,9.0,'11111222,11111222,11111222' 
TCOON,ioos:station:TCOON:009:1,2009-05-08T14:00:00Z,27.8398,-97.0727,0.0,4.0,163.0,7.2,'11111222,11111222,11111222' 
TCOON,ioos:station:TCOON:009:1,2009-05-08T15:00:00Z,27.8398,-97.0727,0.0,4.4,167.0,7.3,'11111222,11111222,11111222' 
TCOON,ioos:station:TCOON:009:1,2009-05-08T16:00:00Z,27.8398,-97.0727,0.0,6.7,169.0,9.9,'11111222,11111222,11111222' 
TCOON,ioos:station:TCOON:009:1,2009-05-08T17:00:00Z,27.8398,-97.0727,0.0,6.7,168.0,10.3,'11111222,11111222,11111222' 
TCOON,ioos:station:TCOON:009:1,2009-05-08T18:00:00Z,27.8398,-97.0727,0.0,6.3,162.0,9.8,'11111222,11111222,11111222' 
TCOON,ioos:station:TCOON:009:1,2009-05-08T19:00:00Z,27.8398,-97.0727,0.0,6.1,169.0,9.4,'11111222,11111222,11111222' 
TCOON,ioos:station:TCOON:009:1,2009-05-08T20:00:00Z,27.8398,-97.0727,0.0,5.7,165.0,8.9,'11111222,11111222,11111222' 
TCOON,ioos:station:TCOON:009:1,2009-05-08T21:00:00Z,27.8398,-97.0727,0.0,4.9,159.0,7.6,'11111222,11111222,11111222' 
TCOON,ioos:station:TCOON:009:1,2009-05-08T22:00:00Z,27.8398,-97.0727,0.0,6.3,152.0,10.7,'11111222,11111222,11111222' 
TCOON,ioos:station:TCOON:009:1,2009-05-08T23:00:00Z,27.8398,-97.0727,0.0,5.3,160.0,7.6,'11111222,11111222,11111222' 
TCOON,ioos:station:TCOON:009:1,2009-05-09T00:00:00Z,27.8398,-97.0727,0.0,6.1,147.0,10.9,'11111222,11111222,11111222' 
TCOON,ioos:station:TCOON:009:1,2009-05-09T01:00:00Z,27.8398,-97.0727,0.0,5.9,141.0,8.1,'11111222,11111222,11111222' 
TCOON,ioos:station:TCOON:009:1,2009-05-09T02:00:00Z,27.8398,-97.0727,0.0,5.9,147.0,10.9,'11111222,11111222,11111222' 
TCOON,ioos:station:TCOON:009:1,2009-05-09T03:00:00Z,27.8398,-97.0727,0.0,6.0,153.0,9.0,'11111222,11111222,11111222' 
TCOON,ioos:station:TCOON:009:1,2009-05-09T04:00:00Z,27.8398,-97.0727,0.0,5.1,155.0,7.9,'11111222,11111222,11111222' 
TCOON,ioos:station:TCOON:009:1,2009-05-09T05:00:00Z,27.8398,-97.0727,0.0,4.0,161.0,7.2,'11111222,11111222,11111222' 
TCOON,ioos:station:TCOON:009:1,2009-05-09T06:00:00Z,27.8398,-97.0727,0.0,4.5,158.0,8.8,'11111222,11111222,11111222' 
TCOON,ioos:station:TCOON:009:1,2009-05-09T07:00:00Z,27.8398,-97.0727,0.0,5.3,173.0,8.4,'11111222,11111222,11111222' 
TCOON,ioos:station:TCOON:009:1,2009-05-09T08:00:00Z,27.8398,-97.0727,0.0,6.5,181.0,9.4,'11111222,11111222,11111222' 
TCOON,ioos:station:TCOON:009:1,2009-05-09T09:00:00Z,27.8398,-97.0727,0.0,5.2,175.0,7.9,'11111222,11111222,11111222' 
TCOON,ioos:station:TCOON:009:1,2009-05-09T10:00:00Z,27.8398,-97.0727,0.0,4.0,177.0,5.5,'11111222,11111222,11111222' 
TCOON,ioos:station:TCOON:009:1,2009-05-09T11:00:00Z,27.8398,-97.0727,0.0,5.8,175.0,10.1,'11111222,11111222,11111222' 
TCOON,ioos:station:TCOON:009:1,2009-05-09T12:00:00Z,27.8398,-97.0727,0.0,3.5,158.0,5.4,'11111222,11111222,11111222' 
TCOON,ioos:station:TCOON:009:1,2009-05-09T13:00:00Z,27.8398,-97.0727,0.0,3.4,153.0,5.8,'11111222,11111222,11111222' 